TimePDT,TemperatureF,Dew PointF,Humidity,Sea Level PressureIn,VisibilityMPH,Wind Direction,Wind SpeedMPH,Gust SpeedMPH,PrecipitationIn,Events,Conditions,WindDirDegrees,DateUTC
12:35 AM,41.0,35.6,81,30.29,10.0,East,4.6,-,N/A,,Clear,80,2013-04-30 07:35:00
12:55 AM,41.0,35.6,81,30.30,10.0,East,4.6,-,N/A,,Scattered Clouds,90,2013-04-30 07:55:00
1:15 AM,41.0,35.6,81,30.30,10.0,Calm,Calm,-,N/A,,Mostly Cloudy,0,2013-04-30 08:15:00
1:35 AM,41.0,35.6,81,30.31,10.0,ENE,4.6,-,N/A,,Scattered Clouds,60,2013-04-30 08:35:00
1:55 AM,41.0,35.6,81,30.31,10.0,East,3.5,-,N/A,,Mostly Cloudy,80,2013-04-30 08:55:00
2:15 AM,41.0,35.6,81,30.31,10.0,ENE,4.6,-,N/A,,Scattered Clouds,70,2013-04-30 09:15:00
2:35 AM,39.2,35.6,87,30.30,10.0,East,4.6,-,N/A,,Clear,90,2013-04-30 09:35:00
2:55 AM,39.2,35.6,87,30.31,10.0,ENE,5.8,-,N/A,,Scattered Clouds,70,2013-04-30 09:55:00
3:15 AM,39.2,35.6,87,30.31,10.0,ENE,3.5,-,N/A,,Scattered Clouds,60,2013-04-30 10:15:00
3:35 AM,39.2,35.6,87,-9999,10.0,ENE,3.5,-,N/A,,Mostly Cloudy,70,2013-04-30 10:35:00
3:55 AM,37.4,35.6,93,30.31,10.0,East,3.5,-,N/A,,Scattered Clouds,80,2013-04-30 10:55:00
4:15 AM,41.0,37.4,87,30.32,7.0,ENE,3.5,-,N/A,Rain,Light Rain,70,2013-04-30 11:15:00
4:35 AM,41.0,37.4,87,30.32,10.0,ENE,5.8,-,N/A,,Overcast,70,2013-04-30 11:35:00
4:55 AM,39.2,37.4,93,30.32,10.0,East,5.8,-,N/A,,Mostly Cloudy,90,2013-04-30 11:55:00
5:15 AM,39.2,37.4,93,30.32,10.0,East,4.6,-,N/A,,Overcast,90,2013-04-30 12:15:00
5:35 AM,39.2,37.4,93,30.32,10.0,Calm,Calm,-,N/A,,Mostly Cloudy,0,2013-04-30 12:35:00
5:55 AM,37.4,35.6,93,30.33,10.0,ENE,3.5,-,N/A,,Mostly Cloudy,60,2013-04-30 12:55:00
6:15 AM,39.2,37.4,93,30.33,7.0,ESE,3.5,-,0.01,Rain,Light Rain,120,2013-04-30 13:15:00
6:35 AM,41.0,37.4,87,30.34,10.0,Calm,Calm,-,0.01,Rain,Light Rain,0,2013-04-30 13:35:00
6:55 AM,41.0,37.4,87,30.35,7.0,Calm,Calm,-,0.01,Rain,Light Rain,0,2013-04-30 13:55:00
7:15 AM,41.0,37.4,87,30.35,7.0,East,4.6,-,N/A,Rain,Light Rain,100,2013-04-30 14:15:00
7:35 AM,41.0,39.2,93,30.35,7.0,ESE,3.5,-,0.01,Rain,Light Rain,110,2013-04-30 14:35:00
7:55 AM,42.8,39.2,87,30.35,10.0,Calm,Calm,-,0.01,,Scattered Clouds,0,2013-04-30 14:55:00
8:15 AM,42.8,39.2,87,30.36,10.0,East,5.8,-,N/A,,Scattered Clouds,90,2013-04-30 15:15:00
8:35 AM,42.8,41.0,93,30.37,10.0,NE,6.9,-,N/A,,Drizzle,50,2013-04-30 15:35:00
8:55 AM,42.8,39.2,87,30.37,10.0,NE,3.5,-,N/A,Rain,Light Rain,50,2013-04-30 15:55:00
9:15 AM,44.6,41.0,87,30.37,10.0,NNE,4.6,-,N/A,,Overcast,20,2013-04-30 16:15:00
9:35 AM,44.6,41.0,87,30.38,10.0,NNE,5.8,-,N/A,,Overcast,20,2013-04-30 16:35:00
9:55 AM,44.6,41.0,87,30.38,10.0,ENE,5.8,-,N/A,,Overcast,60,2013-04-30 16:55:00
10:15 AM,46.4,41.0,81,30.38,10.0,NNE,4.6,-,N/A,,Mostly Cloudy,30,2013-04-30 17:15:00
10:35 AM,46.4,39.2,76,30.38,10.0,North,6.9,-,N/A,,Mostly Cloudy,360,2013-04-30 17:35:00
10:55 AM,50.0,41.0,71,30.39,10.0,NNW,9.2,-,N/A,,Scattered Clouds,340,2013-04-30 17:55:00
11:15 AM,46.4,41.0,81,30.40,7.0,North,8.1,-,N/A,Rain,Light Rain,350,2013-04-30 18:15:00
11:35 AM,48.2,41.0,76,30.40,10.0,NNW,8.1,-,N/A,,Mostly Cloudy,330,2013-04-30 18:35:00
11:55 AM,50.0,41.0,71,30.40,10.0,NW,10.4,-,N/A,,Scattered Clouds,310,2013-04-30 18:55:00
12:15 PM,50.0,37.4,62,-9999,10.0,NNW,16.1,-,N/A,,Clear,340,2013-04-30 19:15:00
12:35 PM,50.0,42.8,76,30.41,10.0,NNW,13.8,20.7,N/A,,Clear,330,2013-04-30 19:35:00
12:55 PM,50.0,41.0,71,30.41,10.0,NNW,15.0,19.6,N/A,,Scattered Clouds,330,2013-04-30 19:55:00
1:15 PM,50.0,39.2,66,30.41,10.0,NNW,15.0,23.0,N/A,,Overcast,330,2013-04-30 20:15:00
1:35 PM,50.0,41.0,71,30.41,10.0,NNW,18.4,24.2,N/A,,Scattered Clouds,330,2013-04-30 20:35:00
1:55 PM,51.8,39.2,62,30.42,10.0,NNW,17.3,-,N/A,,Clear,330,2013-04-30 20:55:00
2:15 PM,51.8,39.2,62,30.42,10.0,NNW,15.0,24.2,N/A,,Clear,330,2013-04-30 21:15:00
2:35 PM,51.8,37.4,58,30.43,10.0,NNW,16.1,24.2,N/A,,Clear,330,2013-04-30 21:35:00
2:55 PM,51.8,39.2,62,30.43,10.0,NNW,18.4,24.2,N/A,,Clear,340,2013-04-30 21:55:00
3:15 PM,51.8,37.4,58,30.42,10.0,NNW,15.0,20.7,N/A,,Clear,330,2013-04-30 22:15:00
3:35 PM,51.8,37.4,58,30.42,10.0,NNW,17.3,24.2,N/A,,Clear,330,2013-04-30 22:35:00
3:55 PM,51.8,39.2,62,30.42,10.0,NNW,16.1,23.0,N/A,,Clear,340,2013-04-30 22:55:00
4:15 PM,51.8,39.2,62,30.42,10.0,NNW,18.4,24.2,N/A,,Clear,330,2013-04-30 23:15:00
4:35 PM,51.8,37.4,58,30.42,10.0,NNW,17.3,23.0,N/A,,Clear,330,2013-04-30 23:35:00
5:15 PM,50.0,37.4,62,30.43,10.0,NNW,13.8,24.2,N/A,,Clear,340,2013-05-01 00:15:00
5:35 PM,50.0,37.4,62,30.43,10.0,NNW,17.3,21.9,N/A,,Clear,340,2013-05-01 00:35:00
6:15 PM,50.0,37.4,62,30.44,10.0,NNW,13.8,19.6,N/A,,Clear,340,2013-05-01 01:15:00
6:35 PM,50.0,39.2,66,30.44,10.0,North,15.0,19.6,N/A,,Clear,360,2013-05-01 01:35:00
7:15 PM,48.2,35.6,62,30.45,10.0,North,11.5,16.1,N/A,,Clear,360,2013-05-01 02:15:00
7:35 PM,46.4,35.6,66,30.45,10.0,North,12.7,21.9,N/A,,Clear,360,2013-05-01 02:35:00
8:15 PM,44.6,37.4,76,-9999,10.0,North,10.4,-,N/A,,Clear,360,2013-05-01 03:15:00
8:35 PM,44.6,35.6,71,30.45,10.0,North,6.9,-,N/A,,Clear,10,2013-05-01 03:35:00
8:55 PM,44.6,35.6,71,30.46,10.0,North,4.6,-,N/A,,Clear,10,2013-05-01 03:55:00
9:15 PM,44.6,35.6,71,30.46,10.0,North,6.9,-,N/A,,Clear,10,2013-05-01 04:15:00
9:35 PM,44.6,37.4,76,30.47,10.0,NE,3.5,-,N/A,,Clear,40,2013-05-01 04:35:00
9:55 PM,42.8,37.4,81,30.47,10.0,NNE,5.8,-,N/A,,Clear,20,2013-05-01 04:55:00
10:15 PM,42.8,37.4,81,30.47,10.0,NNE,5.8,-,N/A,,Clear,30,2013-05-01 05:15:00
10:35 PM,42.8,35.6,76,30.47,10.0,NNE,6.9,-,N/A,,Clear,30,2013-05-01 05:35:00
10:55 PM,42.8,35.6,76,30.48,10.0,NE,4.6,-,N/A,,Clear,40,2013-05-01 05:55:00
11:15 PM,42.8,35.6,76,30.48,10.0,NNE,4.6,-,N/A,,Clear,20,2013-05-01 06:15:00
11:35 PM,42.8,35.6,76,30.48,10.0,NNE,4.6,-,N/A,,Clear,30,2013-05-01 06:35:00
11:55 PM,42.8,35.6,76,30.48,10.0,NNE,5.8,-,N/A,,Clear,20,2013-05-01 06:55:00